Location: Apeadero de Los Molinos-Guadarrama
(40.7091°N, 4.0689°W)
Time: 11:48:24
(UTC+00:00)

Meteor 1-25 Rocket - Pass Details

Date: 14 May 2021
Orbit: 838 x 890 km, 81.2° (Epoch: 18 June)

Event Time Altitude Azimuth Distance (km) Brightness Sun altitude
Rises 20:17:16 0° 350° (N) 3,507 8.2 -9.2°
Reaches altitude 10° 20:19:44 10° 350° (N) 2,565 7.4 -9.6°
Maximum altitude 20:25:36 89° 258° (WSW) 896 4.3 -10.5°
Drops below altitude 10° 20:31:25 10° 173° (S) 2,540 6.3 -11.4°
Enters shadow 20:32:53 - 173° (S) 3,102 6.7 -11.6°
